Find Starlink 34069

NORAD ID: 64920 Int'l Des: 2025-157 Owner: SPXS Country: US Constellation: starlink operational
LEOCIRCULAR

当前视图

正在加载3D地球...

关于 Starlink 34069

正在加载描述...

即将过境

Passes for default location (London). Set your location on the main map for personalized predictions.

高度历史

Loading altitude history...

两行轨道根数

1 64920U 25157S 26149.50435948 .00023076 00000-0 78833-3 0 9991
2 64920 53.1609 330.5184 0001057 101.6209 258.4910 15.30219734 48492
Epoch: May 29, 2026 • Age: 20 hours

当前状态

高度 482.8 km
速度 7.62 km/s
星下点 -24.92°S, 66.68°W
发射日期 Jul 26, 2025
运行时间 0.8 years
类型 internet

技术详情

分类 Payload
质量 575.00 kg
干质量 530.00 kg
总质量 575.00 kg
长度 0.30 m
直径 4.10 m
跨度 29.00 m
形状 Box + pan
制造商 SPXS
平台类型 Starlink V2MO
阶段状态 In Orbit
所有者/国家 SPXS/US

Most Searched